| time (UTC) | temp F | wind direction | speed knots | gust knots | rain 1hr in | rain 24hr in | rain mn in | humidity % | barometer mb |
| 20260506044539 | 61 | 0.0 | 0.0 | 0.00 | 0.00 | 0.00 | 72 | 1016.6 | |
| 20260506043029 | 61 | 0.0 | 0.0 | 0.00 | 0.00 | 0.00 | 1016.4 | ||
| 20260506041509 | 61 | 119 | 0.0 | 0.9 | 0.00 | 0.00 | 0.00 | 71 | 1016.4 |
| 20260506040049 | 0 | 0.0 | 0.0 | 0.00 | 0.00 | 0.00 | 1016.2 | ||
| 20260506034504 | 62 | 109 | 0.9 | 2.6 | 0.00 | 0.00 | 0.00 | 70 | 1016.0 |
| 20260506033027 | 0 | 0.0 | 0.0 | 0.00 | 0.00 | 0.00 | 1015.8 | ||
| 20260506031514 | 63 | 66 | 3.5 | 4.3 | 0.00 | 0.00 | 0.00 | 69 | 1015.7 |
| 20260506030028 | 63 | 0.0 | 0.0 | 0.00 | 0.00 | 0.00 | 1015.9 | ||
| 20260506024530 | 64 | 11 | 1.7 | 4.3 | 0.00 | 0.00 | 0.00 | 65 | 1015.5 |
| 20260506023027 | 64 | 0.0 | 0.0 | 0.00 | 0.00 | 0.00 | 65 | 1015.5 | |
| 20260506021524 | 0 | 352 | 1.7 | 0.0 | 0.00 | 0.00 | 0.00 | 1015.4 | |
| 20260506020027 | 0 | 0.0 | 0.0 | 0.00 | 0.00 | 0.00 | 1015.4 | ||
| 20260506014531 | 64 | 344 | 0.9 | 3.5 | 0.00 | 0.00 | 0.00 | 66 | 1015.5 |
| 20260506013030 | 0 | 0.0 | 0.0 | 0.00 | 0.00 | 0.00 | 1015.5 | ||
| 20260506011529 | 64 | 17 | 1.7 | 3.5 | 0.00 | 0.00 | 0.00 | 66 | 1015.5 |
| 20260506010026 | 63 | 0.0 | 0.0 | 0.00 | 0.00 | 0.00 | 1015.5 | ||
| 20260506004529 | 63 | 336 | 3.5 | 4.3 | 0.00 | 0.00 | 0.00 | 66 | 1015.6 |
| 20260506003030 | 0 | 0.0 | 0.0 | 0.00 | 0.00 | 0.00 | 1015.6 | ||
| 20260506001527 | 63 | 340 | 1.7 | 4.3 | 0.00 | 0.00 | 0.00 | 68 | 1015.7 |
| 20260506000028 | 0 | 0.0 | 0.0 | 0.00 | 0.00 | 0.00 | 1015.8 | ||
| 20260505234530 | 63 | 319 | 3.5 | 5.2 | 0.00 | 0.00 | 0.00 | 69 | 1015.9 |
| 20260505233014 | 0 | 256 | 1.7 | 0.0 | 0.00 | 0.00 | 0.00 | 69 | 1016.1 |
| 20260505231541 | 63 | 1.7 | 4.3 | 0.00 | 0.00 | 0.00 | 67 | 1016.1 | |
| 20260505230028 | 0 | 323 | 2.6 | 0.0 | 0.00 | 0.00 | 0.00 | 69 | 1016.2 |
| 20260505224530 | 63 | 2.6 | 5.2 | 0.00 | 0.00 | 0.00 | 69 | 1016.1 | |
| 20260505223034 | 63 | 316 | 3.5 | 0.0 | 0.00 | 0.00 | 0.00 | 68 | 1016.3 |
| 20260505221529 | 63 | 2.6 | 7.0 | 0.00 | 0.00 | 0.00 | 68 | 1016.3 | |
| 20260505220037 | 63 | 315 | 3.5 | 4.3 | 0.00 | 0.00 | 0.00 | 68 | 1016.3 |
| 20260505214535 | 63 | 2.6 | 5.2 | 0.00 | 0.00 | 0.00 | 66 | 1016.6 | |
| 20260505213026 | 63 | 341 | 0.9 | 6.1 | 0.00 | 0.00 | 0.00 | 66 | 1016.5 |
| 20260505211530 | 0 | 0.0 | 0.0 | 0.00 | 0.00 | 0.00 | 1016.5 | ||
| 20260505210002 | 64 | 269 | 1.7 | 3.5 | 0.00 | 0.00 | 0.00 | 67 | 1016.6 |
| 20260505204533 | 0 | 0.0 | 0.0 | 0.00 | 0.00 | 0.00 | 1016.8 | ||
| 20260505203031 | 63 | 317 | 0.9 | 2.6 | 0.00 | 0.00 | 0.00 | 67 | 1016.8 |
| 20260505201531 | 0 | 0.0 | 0.0 | 0.00 | 0.00 | 0.00 | 1017.0 | ||
| 20260505200037 | 61 | 0.9 | 2.6 | 0.00 | 0.00 | 0.00 | 70 | 1017.0 | |
| 20260505194509 | 61 | 66 | 2.6 | 0.0 | 0.00 | 0.00 | 0.00 | 71 | 1017.1 |
| 20260505193030 | 60 | 1.7 | 2.6 | 0.00 | 0.00 | 0.00 | 73 | 1017.0 | |
| 20260505191512 | 60 | 9 | 0.9 | 3.5 | 0.00 | 0.00 | 0.00 | 73 | 1017.2 |
| 20260505190034 | 59 | 0.9 | 1.7 | 0.00 | 0.00 | 0.00 | 1017.1 | ||
| 20260505184530 | 0 | 0.0 | 0.0 | 0.00 | 0.00 | 0.00 | 1017.1 | ||
| 20260505183032 | 0 | 0.0 | 0.0 | 0.00 | 0.00 | 0.00 | 1017.1 | ||
| 20260505181529 | 0 | 0.0 | 0.0 | 0.00 | 0.00 | 0.00 | 1017.1 | ||
| 20260505180027 | 59 | 252 | 1.7 | 5.2 | 0.00 | 0.00 | 0.00 | 73 | 1017.1 |
| 20260505174539 | 0 | 0.0 | 0.0 | 0.00 | 0.00 | 0.00 | 1016.9 | ||
| 20260505173030 | 0 | 0.0 | 0.0 | 0.00 | 0.00 | 0.00 | 1016.8 | ||
| 20260505171529 | 0 | 0.0 | 0.0 | 0.00 | 0.00 | 0.00 | 1016.8 | ||
| 20260505170030 | 0 | 0.0 | 0.0 | 0.00 | 0.00 | 0.00 | 1016.7 | ||
| 20260505164528 | 57 | 0.0 | 0.0 | 0.00 | 0.00 | 0.00 | 1016.6 | ||
| 20260505163021 | 57 | 232 | 0.9 | 3.5 | 0.00 | 0.00 | 0.00 | 77 | 1016.7 |
| 20260505161533 | 0 | 0.0 | 0.0 | 0.00 | 0.00 | 0.00 | 77 | 1016.5 | |
| 20260505153029 | 0 | 0.0 | 0.0 | 0.00 | 0.00 | 0.00 | 1016.5 | ||
| 20260505151529 | 56 | 219 | 2.6 | 6.1 | 0.00 | 0.00 | 0.00 | 81 | 1016.4 |
| 20260505124535 | 55 | 199 | 3.5 | 5.2 | 0.00 | 0.00 | 0.00 | 80 | 1015.4 |
| 20260505123030 | 55 | 190 | 0.0 | 1.7 | 0.00 | 0.00 | 0.00 | 80 | 1015.4 |
| 20260505121531 | 55 | 190 | 1.7 | 3.5 | 0.00 | 0.00 | 0.00 | 80 | 1015.4 |
| 20260505120030 | 55 | 179 | 2.6 | 3.5 | 0.00 | 0.00 | 0.00 | 79 | 1015.3 |
| 20260505114529 | 55 | 192 | 1.7 | 3.5 | 0.00 | 0.00 | 0.00 | 79 | 1015.3 |
| 20260505113026 | 56 | 234 | 1.7 | 3.5 | 0.00 | 0.00 | 0.00 | 79 | 1015.1 |
| 20260505111522 | 56 | 304 | 0.9 | 1.7 | 0.00 | 0.00 | 0.00 | 79 | 1015.2 |
| 20260505101512 | 55 | 194 | 2.6 | 4.3 | 0.00 | 0.00 | 0.00 | 80 | 1014.7 |
| 20260505100004 | 55 | 329 | 0.0 | 1.7 | 0.00 | 0.00 | 0.00 | 82 | 1014.7 |
| 20260505094504 | 55 | 329 | 0.0 | 1.7 | 0.00 | 0.00 | 0.00 | 82 | 1014.6 |
| 20260505093006 | 56 | 330 | 0.0 | 1.7 | 0.00 | 0.00 | 0.00 | 81 | 1014.6 |
| 20260505091528 | 56 | 329 | 0.0 | 1.7 | 0.00 | 0.00 | 0.00 | 81 | 1014.6 |
| 20260505090036 | 56 | 329 | 0.0 | 1.7 | 0.00 | 0.00 | 0.00 | 81 | 1014.3 |
| 20260505084505 | 56 | 330 | 0.0 | 1.7 | 0.00 | 0.00 | 0.00 | 81 | 1014.2 |
| 20260505083013 | 56 | 329 | 1.7 | 3.5 | 0.00 | 0.00 | 0.00 | 80 | 1014.3 |
| 20260505081509 | 56 | 310 | 2.6 | 3.5 | 0.00 | 0.00 | 0.00 | 80 | 1014.1 |
| 20260505080016 | 57 | 315 | 2.6 | 4.3 | 0.00 | 0.00 | 0.00 | 79 | 1014.1 |
| 20260505074529 | 57 | 316 | 1.7 | 5.2 | 0.00 | 0.00 | 0.00 | 78 | 1014.1 |
| 20260505073009 | 58 | 340 | 2.6 | 3.5 | 0.00 | 0.00 | 0.00 | 77 | 1013.6 |
| 20260505071544 | 59 | 309 | 0.0 | 4.3 | 0.00 | 0.00 | 0.00 | 75 | 1013.4 |
| 20260505070016 | 60 | 178 | 1.7 | 4.3 | 0.00 | 0.00 | 0.00 | 74 | 1013.4 |
| 20260505064524 | 60 | 315 | 0.9 | 1.7 | 0.00 | 0.00 | 0.00 | 73 | 1013.1 |
| 20260505063028 | 61 | 315 | 0.9 | 1.7 | 0.00 | 0.00 | 0.00 | 72 | 1013.0 |
| 20260505061510 | 61 | 321 | 0.9 | 4.3 | 0.00 | 0.00 | 0.00 | 70 | 1012.7 |
| 20260505060012 | 62 | 315 | 1.7 | 2.6 | 0.00 | 0.00 | 0.00 | 69 | 1012.5 |